sat.trackr.live / text

‹ back to catalog

SUOMI-100

NORAD 43804 · 2018-099AY

PAYLOAD ACTIVE UNKNOWN

§ Identity

Operator
Country
FIN
Launch date
2018-12-03
Launch site
AFWTR
Launch vehicle
Mass (kg)
RCS (m²)

External: N2YO · Heavens-Above · Gunter

§ Orbital elements

Epoch: 2026-09-18T02:41:23.557344Z

Period
94.10 min
Inclination
97.4086°
Eccentricity
0.0008211
Mean motion
15.30348668 rev/d
Perigee alt
469.1 km
Apogee alt
480.4 km
Semi-major
6,852.9 km
B*
2.9651e-4
RAAN
321.2390°
Arg perigee
316.6515°
Mean anomaly
43.4079°
Rev number
42,762

§ Raw data

SUOMI-1001 43804U 18099AY  26261.11207821  .00008636  00000+0  29651-3 0  99932 43804  97.4086 321.2390 0008211 316.6515  43.4079 15.30348668427626

JSON: /api/v1/satellites/43804 · /tle

For live sub-satellite position, see the globe view (requires WebGL).

§ Visibility from observer

Set your observer location to see the next 7 days of passes ≥ 10°. The values pass through the URL so the page stays shareable.

No JS? Fill the form by hand. The geolocation button needs JavaScript.

§ Radio — SatNOGS DB

ModeDescriptionDownlinkUplink
MSK AX.100 Mode 5 GMSK9k6 TLM 437.775 MHz

1 transmitter · refreshed weekly from db.satnogs.org